Location: La Brionne
(46.1728°N, 1.7849°E)
Time: 07:21:45
(UTC+00:00)

Cosmos 2322 Rocket - Pass Details

Date: 29 October 2021
Orbit: 832 x 852 km, 71.0° (Epoch: 07 December)

Event Time Altitude Azimuth Distance (km) Brightness Sun altitude
Rises 18:31:59 0° 238° (WSW) 3,368 6.3 -19.4°
Reaches altitude 10° 18:34:43 10° 249° (WSW) 2,439 5.6 -19.9°
Maximum altitude 18:39:35 30° 309° (NW) 1,469 3.9 -20.7°
Drops below altitude 10° 18:44:29 10° 10° (N) 2,459 4.5 -21.6°
Enters shadow 18:47:09 - 21° (NNE) 3,363 5.1 -22.0°
